Time,TemperatureF,DewpointF,PressureIn,WindDirection,WindDirectionDegrees,WindSpeedMPH,WindSpeedGustMPH,Humidity,HourlyPrecipIn,Conditions,Clouds,dailyrainin,SoftwareType,DateUTC
2013-07-06 00:01:00,64.4,60.8,29.52,SSW,203,0.4,2.5,88,0.00,,,0.00,WUHU216HW,2013-07-06 07:01:00,
2013-07-06 00:06:00,64.4,60.8,29.52,SSW,203,1.6,2.5,88,0.00,,,0.00,WUHU216HW,2013-07-06 07:06:00,
2013-07-06 00:11:00,64.4,60.8,29.52,SSW,203,2.0,2.5,88,0.00,,,0.00,WUHU216HW,2013-07-06 07:11:00,
2013-07-06 00:16:00,64.4,60.8,29.52,South,180,2.2,2.7,88,0.00,,,0.00,WUHU216HW,2013-07-06 07:16:00,
2013-07-06 00:21:00,64.4,60.8,29.52,South,180,2.5,2.7,88,0.00,,,0.00,WUHU216HW,2013-07-06 07:21:00,
2013-07-06 00:26:00,64.4,60.8,29.52,SSW,203,0.7,2.5,88,0.00,,,0.00,WUHU216HW,2013-07-06 07:26:00,
2013-07-06 00:31:00,64.4,60.8,29.52,SW,225,1.1,2.5,88,0.00,,,0.00,WUHU216HW,2013-07-06 07:31:00,
2013-07-06 00:36:00,64.3,60.7,29.51,SW,225,0.7,1.8,88,0.00,,,0.00,WUHU216HW,2013-07-06 07:36:00,
2013-07-06 00:41:00,64.3,60.7,29.51,SW,225,1.6,1.6,88,0.00,,,0.00,WUHU216HW,2013-07-06 07:41:00,
2013-07-06 00:46:00,64.3,60.7,29.52,SSW,203,1.1,2.5,88,0.00,,,0.00,WUHU216HW,2013-07-06 07:46:00,
2013-07-06 00:51:00,64.3,61.0,29.52,WSW,248,0.9,2.5,89,0.00,,,0.00,WUHU216HW,2013-07-06 07:51:00,
2013-07-06 00:56:00,64.3,60.7,29.51,SSW,203,1.8,3.6,88,0.00,,,0.00,WUHU216HW,2013-07-06 07:56:00,
2013-07-06 01:01:00,64.1,60.5,29.51,SW,225,1.6,3.6,88,0.00,,,0.00,WUHU216HW,2013-07-06 08:01:00,
2013-07-06 01:06:00,64.1,60.5,29.51,SSW,203,2.0,2.0,88,0.00,,,0.00,WUHU216HW,2013-07-06 08:06:00,
2013-07-06 01:11:00,64.1,60.5,29.51,SSE,158,1.1,2.0,88,0.00,,,0.00,WUHU216HW,2013-07-06 08:11:00,
2013-07-06 01:16:00,63.9,60.3,29.51,SW,225,0.2,2.0,88,0.00,,,0.00,WUHU216HW,2013-07-06 08:16:00,
2013-07-06 01:21:00,63.9,60.3,29.51,SW,225,0.0,1.1,88,0.00,,,0.00,WUHU216HW,2013-07-06 08:21:00,
2013-07-06 01:26:00,63.9,60.3,29.51,WSW,248,0.0,0.7,88,0.00,,,0.00,WUHU216HW,2013-07-06 08:26:00,
2013-07-06 01:31:00,63.9,60.3,29.51,WSW,248,0.0,0.7,88,0.00,,,0.00,WUHU216HW,2013-07-06 08:31:00,
2013-07-06 01:36:00,63.7,60.5,29.51,South,180,0.4,0.4,89,0.00,,,0.00,WUHU216HW,2013-07-06 08:36:00,
2013-07-06 01:41:00,63.7,60.5,29.51,SW,225,0.4,0.4,89,0.00,,,0.00,WUHU216HW,2013-07-06 08:41:00,
2013-07-06 01:46:00,63.7,60.5,29.51,SW,225,0.7,1.6,89,0.00,,,0.00,WUHU216HW,2013-07-06 08:46:00,
2013-07-06 01:51:00,63.7,60.5,29.51,WSW,248,0.0,1.6,89,0.00,,,0.00,WUHU216HW,2013-07-06 08:51:00,
2013-07-06 01:56:00,63.7,60.5,29.51,SW,225,0.0,0.7,89,0.00,,,0.00,WUHU216HW,2013-07-06 08:56:00,
2013-07-06 02:01:00,63.7,60.5,29.51,SW,225,0.0,0.4,89,0.00,,,0.00,WUHU216HW,2013-07-06 09:01:00,
2013-07-06 02:06:00,63.7,60.5,29.51,SW,225,0.0,0.0,89,0.00,,,0.00,WUHU216HW,2013-07-06 09:06:00,
2013-07-06 02:11:00,63.7,60.5,29.50,ESE,113,0.7,0.9,89,0.00,,,0.00,WUHU216HW,2013-07-06 09:11:00,
2013-07-06 02:16:00,63.7,60.5,29.50,ESE,113,0.0,1.3,89,0.00,,,0.00,WUHU216HW,2013-07-06 09:16:00,
2013-07-06 02:21:00,63.7,60.5,29.50,NE,45,0.0,1.3,89,0.00,,,0.00,WUHU216HW,2013-07-06 09:21:00,
2013-07-06 02:26:00,63.7,60.5,29.50,NE,45,0.0,1.1,89,0.00,,,0.00,WUHU216HW,2013-07-06 09:26:00,
2013-07-06 02:31:00,63.7,60.5,29.50,NE,45,0.0,0.4,89,0.00,,,0.00,WUHU216HW,2013-07-06 09:31:00,
2013-07-06 02:36:00,63.7,60.5,29.50,NW,315,1.1,1.1,89,0.00,,,0.00,WUHU216HW,2013-07-06 09:36:00,
2013-07-06 02:41:00,63.5,60.3,29.50,North,0,0.9,1.3,89,0.00,,,0.00,WUHU216HW,2013-07-06 09:41:00,
2013-07-06 02:46:00,63.5,60.3,29.50,NNW,338,0.0,1.3,89,0.00,,,0.00,WUHU216HW,2013-07-06 09:46:00,
2013-07-06 02:51:00,63.5,60.3,29.49,West,270,0.0,0.9,89,0.00,,,0.00,WUHU216HW,2013-07-06 09:51:00,
2013-07-06 02:56:00,63.5,60.3,29.49,SW,225,0.4,1.1,89,0.00,,,0.00,WUHU216HW,2013-07-06 09:56:00,
2013-07-06 03:01:00,63.5,60.3,29.50,WSW,248,1.1,1.6,89,0.00,,,0.00,WUHU216HW,2013-07-06 10:01:00,
2013-07-06 03:06:00,63.5,60.3,29.50,SW,225,0.9,2.5,89,0.00,,,0.00,WUHU216HW,2013-07-06 10:06:00,
2013-07-06 03:11:00,63.5,60.3,29.50,SW,225,0.2,2.5,89,0.00,,,0.00,WUHU216HW,2013-07-06 10:11:00,
2013-07-06 03:16:00,63.5,60.3,29.49,SW,225,0.4,1.1,89,0.00,,,0.00,WUHU216HW,2013-07-06 10:16:00,
2013-07-06 03:21:00,63.5,60.7,29.50,West,270,0.0,1.1,90,0.00,,,0.00,WUHU216HW,2013-07-06 10:21:00,
2013-07-06 03:26:00,63.5,60.7,29.50,SW,225,0.0,1.8,90,0.00,,,0.00,WUHU216HW,2013-07-06 10:26:00,
2013-07-06 03:31:00,63.5,60.3,29.50,WSW,248,1.3,1.8,89,0.00,,,0.00,WUHU216HW,2013-07-06 10:31:00,
2013-07-06 03:36:00,63.5,60.7,29.50,SW,225,0.9,1.6,90,0.00,,,0.00,WUHU216HW,2013-07-06 10:36:00,
2013-07-06 03:41:00,63.5,60.7,29.49,SW,225,0.0,1.3,90,0.00,,,0.00,WUHU216HW,2013-07-06 10:41:00,
2013-07-06 03:46:00,63.5,60.7,29.49,SW,225,0.4,0.9,90,0.00,,,0.00,WUHU216HW,2013-07-06 10:46:00,
2013-07-06 03:51:00,63.5,60.7,29.49,SW,225,0.4,1.1,90,0.00,,,0.00,WUHU216HW,2013-07-06 10:51:00,
2013-07-06 03:56:00,63.5,60.7,29.49,SW,225,0.9,1.1,90,0.00,,,0.00,WUHU216HW,2013-07-06 10:56:00,
2013-07-06 04:01:00,63.5,60.7,29.49,SW,225,0.9,0.9,90,0.00,,,0.00,WUHU216HW,2013-07-06 11:01:00,
2013-07-06 04:06:00,63.5,60.7,29.49,SW,225,1.3,1.6,90,0.00,,,0.00,WUHU216HW,2013-07-06 11:06:00,
2013-07-06 04:11:00,63.5,60.7,29.49,SW,225,0.0,1.6,90,0.00,,,0.00,WUHU216HW,2013-07-06 11:11:00,
2013-07-06 04:16:00,63.4,60.5,29.49,WSW,248,0.0,1.3,90,0.00,,,0.00,WUHU216HW,2013-07-06 11:16:00,
2013-07-06 04:21:00,63.4,60.5,29.49,WSW,248,0.4,0.4,90,0.00,,,0.00,WUHU216HW,2013-07-06 11:21:00,
2013-07-06 04:26:00,63.4,60.5,29.49,WSW,248,0.4,0.4,90,0.00,,,0.00,WUHU216HW,2013-07-06 11:26:00,
2013-07-06 04:31:00,63.4,60.5,29.49,West,270,0.4,0.4,90,0.00,,,0.00,WUHU216HW,2013-07-06 11:31:00,
2013-07-06 04:36:00,63.4,60.5,29.49,NW,315,0.4,0.4,90,0.00,,,0.00,WUHU216HW,2013-07-06 11:36:00,
2013-07-06 04:41:00,63.2,60.3,29.49,WSW,248,0.2,0.4,90,0.00,,,0.00,WUHU216HW,2013-07-06 11:41:00,
2013-07-06 04:46:00,63.2,60.3,29.49,WSW,248,1.1,1.6,90,0.00,,,0.00,WUHU216HW,2013-07-06 11:46:00,
2013-07-06 04:51:00,63.2,60.3,29.49,SW,225,0.0,1.6,90,0.00,,,0.00,WUHU216HW,2013-07-06 11:51:00,
2013-07-06 04:56:00,63.2,60.3,29.49,NW,315,0.7,1.1,90,0.00,,,0.00,WUHU216HW,2013-07-06 11:56:00,
2013-07-06 05:01:00,63.2,60.3,29.49,NW,315,0.2,1.1,90,0.00,,,0.00,WUHU216HW,2013-07-06 12:01:00,
2013-07-06 05:06:00,63.2,60.3,29.49,NW,315,0.2,1.1,90,0.00,,,0.00,WUHU216HW,2013-07-06 12:06:00,
2013-07-06 05:11:00,63.2,60.3,29.49,NNW,338,0.4,1.8,90,0.00,,,0.00,WUHU216HW,2013-07-06 12:11:00,
2013-07-06 05:16:00,63.2,60.3,29.49,NW,315,0.7,1.8,90,0.00,,,0.00,WUHU216HW,2013-07-06 12:16:00,
2013-07-06 05:21:00,63.2,60.3,29.50,NW,315,0.7,1.3,90,0.00,,,0.00,WUHU216HW,2013-07-06 12:21:00,
2013-07-06 05:26:00,63.2,60.3,29.50,NNW,338,1.1,1.6,90,0.00,,,0.00,WUHU216HW,2013-07-06 12:26:00,
2013-07-06 05:31:00,63.2,60.3,29.49,NNW,338,0.4,1.8,90,0.00,,,0.00,WUHU216HW,2013-07-06 12:31:00,
2013-07-06 05:36:00,63.2,60.3,29.49,NNW,338,0.0,1.8,90,0.00,,,0.00,WUHU216HW,2013-07-06 12:36:00,
2013-07-06 05:41:00,63.2,60.3,29.50,NNW,338,0.0,1.1,90,0.00,,,0.00,WUHU216HW,2013-07-06 12:41:00,
2013-07-06 05:46:00,63.0,60.1,29.50,NNW,338,0.4,1.1,90,0.00,,,0.00,WUHU216HW,2013-07-06 12:46:00,
2013-07-06 05:51:00,63.2,60.3,29.50,North,0,0.2,0.4,90,0.00,,,0.00,WUHU216HW,2013-07-06 12:51:00,
2013-07-06 05:56:00,63.2,60.3,29.50,North,0,0.0,0.4,90,0.00,,,0.00,WUHU216HW,2013-07-06 12:56:00,
2013-07-06 06:01:00,63.2,60.3,29.50,NNW,338,0.4,0.4,90,0.00,,,0.00,WUHU216HW,2013-07-06 13:01:00,
2013-07-06 06:06:00,63.2,60.3,29.50,NNW,338,0.0,0.4,90,0.00,,,0.00,WUHU216HW,2013-07-06 13:06:00,
2013-07-06 06:11:00,63.2,60.3,29.50,NNW,338,0.0,0.4,90,0.00,,,0.00,WUHU216HW,2013-07-06 13:11:00,
2013-07-06 06:16:00,63.2,60.3,29.50,NNW,338,0.0,0.0,90,0.00,,,0.00,WUHU216HW,2013-07-06 13:16:00,
2013-07-06 06:21:00,63.2,60.3,29.50,NNW,338,0.4,0.4,90,0.00,,,0.00,WUHU216HW,2013-07-06 13:21:00,
2013-07-06 06:26:00,63.2,60.3,29.50,NNW,338,0.0,0.4,90,0.00,,,0.00,WUHU216HW,2013-07-06 13:26:00,
2013-07-06 06:31:00,63.2,60.3,29.51,NNW,338,0.0,0.4,90,0.00,,,0.00,WUHU216HW,2013-07-06 13:31:00,
2013-07-06 06:36:00,63.4,60.5,29.50,North,0,0.4,0.4,90,0.00,,,0.00,WUHU216HW,2013-07-06 13:36:00,
2013-07-06 06:41:00,63.4,60.5,29.51,North,0,0.4,0.4,90,0.00,,,0.00,WUHU216HW,2013-07-06 13:41:00,
2013-07-06 06:46:00,63.4,60.5,29.51,NNE,23,0.9,2.0,90,0.00,,,0.00,WUHU216HW,2013-07-06 13:46:00,
2013-07-06 06:51:00,63.5,60.7,29.51,North,0,1.3,2.0,90,0.00,,,0.00,WUHU216HW,2013-07-06 13:51:00,
2013-07-06 06:56:00,63.5,60.7,29.51,NNE,23,0.2,2.0,90,0.00,,,0.00,WUHU216HW,2013-07-06 13:56:00,
2013-07-06 07:01:00,63.7,60.8,29.51,NNE,23,0.4,2.0,90,0.00,,,0.00,WUHU216HW,2013-07-06 14:01:00,
2013-07-06 07:06:00,63.7,60.8,29.50,NNE,23,0.9,1.3,90,0.00,,,0.00,WUHU216HW,2013-07-06 14:06:00,
2013-07-06 07:11:00,63.7,60.8,29.51,NE,45,1.1,2.2,90,0.00,,,0.00,WUHU216HW,2013-07-06 14:11:00,
2013-07-06 07:16:00,63.9,61.0,29.51,NNE,23,0.7,2.2,90,0.00,,,0.00,WUHU216HW,2013-07-06 14:16:00,
2013-07-06 07:21:00,64.1,61.2,29.51,ENE,68,1.3,1.6,90,0.00,,,0.00,WUHU216HW,2013-07-06 14:21:00,
2013-07-06 07:26:00,64.1,61.2,29.51,ENE,68,1.1,1.6,90,0.00,,,0.00,WUHU216HW,2013-07-06 14:26:00,
2013-07-06 07:31:00,64.3,61.4,29.51,NNW,338,0.4,1.6,90,0.00,,,0.00,WUHU216HW,2013-07-06 14:31:00,
2013-07-06 07:36:00,64.3,61.4,29.51,NNE,23,0.9,1.8,90,0.00,,,0.00,WUHU216HW,2013-07-06 14:36:00,
2013-07-06 07:41:00,64.4,61.6,29.51,NNW,338,0.2,1.8,90,0.00,,,0.00,WUHU216HW,2013-07-06 14:41:00,
2013-07-06 07:46:00,64.4,61.6,29.51,NNW,338,0.4,1.6,90,0.00,,,0.00,WUHU216HW,2013-07-06 14:46:00,
2013-07-06 07:51:00,64.6,61.8,29.51,SW,225,0.2,1.1,90,0.00,,,0.00,WUHU216HW,2013-07-06 14:51:00,
2013-07-06 07:56:00,64.6,61.8,29.51,SW,225,0.0,1.1,90,0.00,,,0.00,WUHU216HW,2013-07-06 14:56:00,
2013-07-06 08:01:00,64.8,61.6,29.51,SW,225,0.7,0.9,89,0.00,,,0.00,WUHU216HW,2013-07-06 15:01:00,
2013-07-06 08:06:00,64.8,61.6,29.52,SSW,203,0.0,0.9,89,0.00,,,0.00,WUHU216HW,2013-07-06 15:06:00,
2013-07-06 08:11:00,65.0,61.8,29.52,NNE,23,0.0,0.9,89,0.00,,,0.00,WUHU216HW,2013-07-06 15:11:00,
2013-07-06 08:16:00,65.0,61.8,29.52,NNW,338,0.0,0.0,89,0.00,,,0.00,WUHU216HW,2013-07-06 15:16:00,
2013-07-06 08:21:00,65.0,61.8,29.52,NNW,338,0.7,0.9,89,0.00,,,0.00,WUHU216HW,2013-07-06 15:21:00,
2013-07-06 08:26:00,65.0,61.8,29.52,NNW,338,0.2,0.9,89,0.00,,,0.00,WUHU216HW,2013-07-06 15:26:00,
2013-07-06 08:31:00,65.2,61.8,29.52,NNW,338,0.2,1.3,89,0.00,,,0.00,WUHU216HW,2013-07-06 15:31:00,
2013-07-06 08:36:00,65.2,61.8,29.52,North,0,0.9,1.8,89,0.00,,,0.00,WUHU216HW,2013-07-06 15:36:00,
2013-07-06 08:41:00,65.3,61.8,29.52,North,0,0.4,1.8,88,0.00,,,0.00,WUHU216HW,2013-07-06 15:41:00,
2013-07-06 08:46:00,65.5,61.8,29.52,ENE,68,1.1,2.5,88,0.00,,,0.00,WUHU216HW,2013-07-06 15:46:00,
2013-07-06 08:51:00,65.5,61.8,29.52,ENE,68,0.4,2.5,88,0.00,,,0.00,WUHU216HW,2013-07-06 15:51:00,
2013-07-06 08:56:00,65.5,61.8,29.52,ESE,113,1.3,1.8,88,0.00,,,0.00,WUHU216HW,2013-07-06 15:56:00,
2013-07-06 09:02:00,65.9,62.6,29.52,NNW,338,0.2,1.8,89,0.00,,,0.00,WUHU216HW,2013-07-06 16:02:00,
2013-07-06 09:07:00,65.9,62.6,29.52,East,90,1.6,1.8,89,0.00,,,0.00,WUHU216HW,2013-07-06 16:07:00,
2013-07-06 09:12:00,66.1,62.4,29.52,NE,45,1.1,1.8,88,0.00,,,0.00,WUHU216HW,2013-07-06 16:12:00,
2013-07-06 09:17:00,66.2,62.6,29.52,ESE,113,0.4,1.6,88,0.00,,,0.00,WUHU216HW,2013-07-06 16:17:00,
2013-07-06 09:22:00,66.2,62.6,29.53,NE,45,1.6,1.8,88,0.00,,,0.00,WUHU216HW,2013-07-06 16:22:00,
2013-07-06 09:28:00,66.4,62.7,29.52,SE,135,0.9,2.5,88,0.00,,,0.00,WUHU216HW,2013-07-06 16:28:00,
2013-07-06 09:33:00,66.6,62.9,29.53,SSW,203,1.8,3.4,88,0.00,,,0.00,WUHU216HW,2013-07-06 16:33:00,
2013-07-06 09:39:00,66.8,62.7,29.52,SW,225,2.0,3.4,87,0.00,,,0.00,WUHU216HW,2013-07-06 16:39:00,
2013-07-06 09:44:00,66.6,62.6,29.52,SW,225,1.8,3.4,87,0.00,,,0.00,WUHU216HW,2013-07-06 16:44:00,
2013-07-06 09:49:00,66.8,62.7,29.53,SSW,203,2.9,2.9,87,0.00,,,0.00,WUHU216HW,2013-07-06 16:49:00,
2013-07-06 09:54:00,67.0,62.9,29.53,WSW,248,2.7,2.9,87,0.00,,,0.00,WUHU216HW,2013-07-06 16:54:00,
2013-07-06 10:00:00,67.0,62.9,29.53,WSW,248,2.7,2.9,87,0.00,,,0.00,WUHU216HW,2013-07-06 17:00:00,
2013-07-06 10:05:00,67.1,63.1,29.53,SSW,203,3.8,3.8,87,0.00,,,0.00,WUHU216HW,2013-07-06 17:05:00,
2013-07-06 10:10:00,67.3,63.0,29.53,SW,225,2.7,3.8,86,0.00,,,0.00,WUHU216HW,2013-07-06 17:10:00,
2013-07-06 10:16:00,67.3,63.0,29.53,SSW,203,1.1,3.8,86,0.00,,,0.00,WUHU216HW,2013-07-06 17:16:00,
2013-07-06 10:21:00,67.5,63.2,29.54,SW,225,3.1,4.3,86,0.00,,,0.00,WUHU216HW,2013-07-06 17:21:00,
2013-07-06 10:26:00,67.5,63.2,29.54,SSW,203,2.5,4.3,86,0.00,,,0.00,WUHU216HW,2013-07-06 17:26:00,
2013-07-06 10:31:00,67.3,63.0,29.54,SW,225,2.9,4.0,86,0.00,,,0.00,WUHU216HW,2013-07-06 17:31:00,
2013-07-06 10:36:00,67.3,63.0,29.54,SW,225,1.6,3.4,86,0.00,,,0.00,WUHU216HW,2013-07-06 17:36:00,
2013-07-06 10:41:00,67.3,63.0,29.54,SW,225,2.0,3.4,86,0.00,,,0.00,WUHU216HW,2013-07-06 17:41:00,
2013-07-06 10:47:00,67.1,62.8,29.54,SSE,158,1.8,2.9,86,0.00,,,0.00,WUHU216HW,2013-07-06 17:47:00,
2013-07-06 10:53:00,67.1,62.8,29.54,SW,225,2.0,2.9,86,0.00,,,0.00,WUHU216HW,2013-07-06 17:53:00,
2013-07-06 10:58:00,67.0,62.7,29.54,WSW,248,0.4,3.4,86,0.00,,,0.00,WUHU216HW,2013-07-06 17:58:00,
2013-07-06 11:03:00,67.0,62.7,29.54,SW,225,1.6,3.8,86,0.00,,,0.00,WUHU216HW,2013-07-06 18:03:00,
2013-07-06 11:09:00,67.0,62.7,29.55,South,180,3.1,4.9,86,0.00,,,0.00,WUHU216HW,2013-07-06 18:09:00,
2013-07-06 11:14:00,67.0,62.7,29.54,WSW,248,1.1,3.1,86,0.00,,,0.00,WUHU216HW,2013-07-06 18:14:00,
2013-07-06 11:19:00,67.1,62.8,29.54,SW,225,4.0,4.0,86,0.00,,,0.00,WUHU216HW,2013-07-06 18:19:00,
2013-07-06 11:24:00,67.5,63.2,29.54,SW,225,1.1,4.0,86,0.00,,,0.00,WUHU216HW,2013-07-06 18:24:00,
2013-07-06 11:30:00,67.5,63.2,29.54,West,270,1.1,2.0,86,0.00,,,0.00,WUHU216HW,2013-07-06 18:30:00,
2013-07-06 11:35:00,67.7,63.0,29.54,SW,225,2.2,2.5,85,0.00,,,0.00,WUHU216HW,2013-07-06 18:35:00,
2013-07-06 11:41:00,67.9,63.2,29.54,South,180,3.1,4.0,85,0.00,,,0.00,WUHU216HW,2013-07-06 18:41:00,
2013-07-06 11:46:00,67.7,63.0,29.54,SW,225,1.8,3.4,85,0.00,,,0.00,WUHU216HW,2013-07-06 18:46:00,
2013-07-06 11:51:00,67.9,63.2,29.54,SSW,203,1.1,4.7,85,0.00,,,0.00,WUHU216HW,2013-07-06 18:51:00,
2013-07-06 11:57:00,67.9,63.2,29.54,West,270,2.5,5.4,85,0.00,,,0.00,WUHU216HW,2013-07-06 18:57:00,
2013-07-06 12:02:00,68.0,63.4,29.54,WSW,248,2.5,5.4,85,0.00,,,0.00,WUHU216HW,2013-07-06 19:02:00,
2013-07-06 12:07:00,68.0,63.4,29.54,WSW,248,3.6,3.6,85,0.00,,,0.00,WUHU216HW,2013-07-06 19:07:00,
2013-07-06 12:13:00,68.0,63.4,29.54,SW,225,3.4,4.7,85,0.00,,,0.00,WUHU216HW,2013-07-06 19:13:00,
2013-07-06 12:18:00,68.0,63.0,29.54,WSW,248,2.2,4.7,84,0.00,,,0.00,WUHU216HW,2013-07-06 19:18:00,
2013-07-06 12:23:00,68.2,63.2,29.54,West,270,1.8,4.7,84,0.00,,,0.00,WUHU216HW,2013-07-06 19:23:00,
2013-07-06 12:29:00,68.4,63.4,29.53,WSW,248,1.6,4.7,84,0.00,,,0.00,WUHU216HW,2013-07-06 19:29:00,
2013-07-06 12:34:00,68.2,63.2,29.54,WNW,293,2.0,2.5,84,0.00,,,0.00,WUHU216HW,2013-07-06 19:34:00,
2013-07-06 12:39:00,68.0,63.0,29.54,WSW,248,1.3,2.7,84,0.00,,,0.00,WUHU216HW,2013-07-06 19:39:00,
2013-07-06 12:44:00,68.0,63.0,29.54,West,270,0.7,3.6,84,0.00,,,0.00,WUHU216HW,2013-07-06 19:44:00,
2013-07-06 12:49:00,68.2,63.2,29.54,WSW,248,2.5,3.6,84,0.00,,,0.00,WUHU216HW,2013-07-06 19:49:00,
2013-07-06 12:54:00,68.4,63.4,29.53,West,270,1.3,5.1,84,0.00,,,0.00,WUHU216HW,2013-07-06 19:54:00,
2013-07-06 12:59:00,68.8,63.7,29.53,NNW,338,0.7,5.1,84,0.00,,,0.00,WUHU216HW,2013-07-06 19:59:00,
2013-07-06 13:04:00,68.8,63.7,29.53,SW,225,4.0,4.0,84,0.00,,,0.00,WUHU216HW,2013-07-06 20:04:00,
2013-07-06 13:10:00,69.1,63.7,29.53,WSW,248,1.3,4.0,83,0.00,,,0.00,WUHU216HW,2013-07-06 20:10:00,
2013-07-06 13:15:00,69.5,63.7,29.53,WSW,248,3.4,4.0,82,0.00,,,0.00,WUHU216HW,2013-07-06 20:15:00,
2013-07-06 13:20:00,69.3,63.5,29.52,SW,225,3.4,3.4,82,0.00,,,0.00,WUHU216HW,2013-07-06 20:20:00,
2013-07-06 13:25:00,69.3,63.5,29.52,West,270,1.1,3.4,82,0.00,,,0.00,WUHU216HW,2013-07-06 20:25:00,
2013-07-06 13:30:00,69.3,63.5,29.52,SW,225,4.7,4.7,82,0.00,,,0.00,WUHU216HW,2013-07-06 20:30:00,
2013-07-06 13:36:00,69.3,63.5,29.52,NNW,338,2.5,4.7,82,0.00,,,0.00,WUHU216HW,2013-07-06 20:36:00,
2013-07-06 13:41:00,69.5,63.7,29.52,SSW,203,1.6,4.7,82,0.00,,,0.00,WUHU216HW,2013-07-06 20:41:00,
2013-07-06 13:46:00,69.3,63.2,29.52,SW,225,0.9,3.4,81,0.00,,,0.00,WUHU216HW,2013-07-06 20:46:00,
2013-07-06 13:51:00,69.5,63.4,29.52,South,180,1.6,4.0,81,0.00,,,0.00,WUHU216HW,2013-07-06 20:51:00,
2013-07-06 13:57:00,69.5,63.7,29.51,SSW,203,4.7,4.7,82,0.00,,,0.00,WUHU216HW,2013-07-06 20:57:00,
2013-07-06 14:03:00,69.7,63.6,29.51,SW,225,4.9,6.7,81,0.00,,,0.00,WUHU216HW,2013-07-06 21:03:00,
2013-07-06 14:08:00,69.7,63.2,29.51,WSW,248,2.9,6.7,80,0.00,,,0.00,WUHU216HW,2013-07-06 21:08:00,
2013-07-06 14:13:00,69.8,63.4,29.51,West,270,3.4,4.9,80,0.00,,,0.00,WUHU216HW,2013-07-06 21:13:00,
2013-07-06 14:19:00,69.8,63.4,29.51,SW,225,1.8,4.9,80,0.00,,,0.00,WUHU216HW,2013-07-06 21:19:00,
2013-07-06 14:24:00,69.8,63.4,29.51,West,270,4.3,4.3,80,0.00,,,0.00,WUHU216HW,2013-07-06 21:24:00,
2013-07-06 14:30:00,69.7,63.2,29.51,NW,315,1.8,4.3,80,0.00,,,0.00,WUHU216HW,2013-07-06 21:30:00,
2013-07-06 14:35:00,69.7,63.6,29.50,NNE,23,2.5,4.3,81,0.00,,,0.00,WUHU216HW,2013-07-06 21:35:00,
2013-07-06 14:40:00,69.7,63.6,29.50,WNW,293,1.6,3.4,81,0.00,,,0.00,WUHU216HW,2013-07-06 21:40:00,
2013-07-06 14:45:00,69.7,63.6,29.50,SW,225,3.6,3.6,81,0.00,,,0.00,WUHU216HW,2013-07-06 21:45:00,
2013-07-06 14:50:00,69.5,63.4,29.50,WNW,293,1.1,3.6,81,0.00,,,0.00,WUHU216HW,2013-07-06 21:50:00,
2013-07-06 14:56:00,69.5,63.4,29.50,SW,225,1.8,3.6,81,0.00,,,0.00,WUHU216HW,2013-07-06 21:56:00,
2013-07-06 15:01:00,69.5,63.4,29.50,NNW,338,1.8,4.7,81,0.00,,,0.00,WUHU216HW,2013-07-06 22:01:00,
2013-07-06 15:06:00,69.3,63.2,29.50,WSW,248,1.1,4.7,81,0.00,,,0.00,WUHU216HW,2013-07-06 22:06:00,
2013-07-06 15:11:00,68.9,63.2,29.50,NNW,338,2.2,4.0,82,0.00,,,0.00,WUHU216HW,2013-07-06 22:11:00,
2013-07-06 15:17:00,68.8,63.1,29.50,West,270,3.1,4.7,82,0.00,,,0.00,WUHU216HW,2013-07-06 22:17:00,
2013-07-06 15:22:00,68.8,63.1,29.49,SW,225,1.3,4.7,82,0.00,,,0.00,WUHU216HW,2013-07-06 22:22:00,
2013-07-06 15:27:00,68.9,63.2,29.49,SW,225,3.8,3.8,82,0.00,,,0.00,WUHU216HW,2013-07-06 22:27:00,
2013-07-06 15:32:00,69.1,63.4,29.49,South,180,1.8,3.8,82,0.00,,,0.00,WUHU216HW,2013-07-06 22:32:00,
2013-07-06 15:37:00,69.1,63.4,29.49,SW,225,2.5,4.7,82,0.00,,,0.00,WUHU216HW,2013-07-06 22:37:00,
2013-07-06 15:42:00,69.1,62.7,29.49,NW,315,1.6,4.7,80,0.00,,,0.00,WUHU216HW,2013-07-06 22:42:00,
2013-07-06 15:47:00,69.1,63.1,29.49,SSW,203,1.8,3.4,81,0.00,,,0.00,WUHU216HW,2013-07-06 22:47:00,
2013-07-06 15:52:00,69.3,63.2,29.48,SW,225,3.1,3.4,81,0.00,,,0.00,WUHU216HW,2013-07-06 22:52:00,
2013-07-06 15:57:00,69.1,63.1,29.48,ESE,113,0.4,3.4,81,0.00,,,0.00,WUHU216HW,2013-07-06 22:57:00,
2013-07-06 16:02:00,69.3,62.9,29.48,SSW,203,1.1,2.5,80,0.00,,,0.00,WUHU216HW,2013-07-06 23:02:00,
2013-07-06 16:08:00,69.3,62.9,29.48,NNW,338,2.0,3.4,80,0.00,,,0.00,WUHU216HW,2013-07-06 23:08:00,
2013-07-06 16:13:00,69.1,63.1,29.48,NW,315,2.5,3.4,81,0.00,,,0.00,WUHU216HW,2013-07-06 23:13:00,
2013-07-06 16:18:00,68.8,63.1,29.47,SW,225,1.6,3.1,82,0.00,,,0.00,WUHU216HW,2013-07-06 23:18:00,
2013-07-06 16:23:00,68.8,63.1,29.47,West,270,4.0,4.0,82,0.00,,,0.00,WUHU216HW,2013-07-06 23:23:00,
2013-07-06 16:29:00,68.6,62.9,29.47,WSW,248,4.3,4.3,82,0.00,,,0.00,WUHU216HW,2013-07-06 23:29:00,
2013-07-06 16:34:00,68.8,63.1,29.47,WNW,293,3.6,5.8,82,0.00,,,0.00,WUHU216HW,2013-07-06 23:34:00,
2013-07-06 16:39:00,69.1,63.4,29.47,WSW,248,5.1,5.8,82,0.00,,,0.00,WUHU216HW,2013-07-06 23:39:00,
2013-07-06 16:45:00,69.5,63.0,29.47,SW,225,1.3,5.1,80,0.00,,,0.00,WUHU216HW,2013-07-06 23:45:00,
2013-07-06 16:50:00,69.1,62.7,29.47,WSW,248,1.8,3.8,80,0.00,,,0.00,WUHU216HW,2013-07-06 23:50:00,
2013-07-06 16:55:00,68.9,63.2,29.47,West,270,4.7,4.7,82,0.00,,,0.00,WUHU216HW,2013-07-06 23:55:00,
2013-07-06 17:01:00,68.9,62.9,29.47,WSW,248,2.0,4.7,81,0.00,,,0.00,WUHU216HW,2013-07-07 00:01:00,
2013-07-06 17:06:00,68.0,62.4,29.47,West,270,2.5,4.0,82,0.00,,,0.00,WUHU216HW,2013-07-07 00:06:00,
2013-07-06 17:11:00,68.0,62.7,29.46,WNW,293,2.9,3.6,83,0.00,,,0.00,WUHU216HW,2013-07-07 00:11:00,
2013-07-06 17:16:00,67.9,62.2,29.46,NW,315,1.8,5.1,82,0.00,,,0.00,WUHU216HW,2013-07-07 00:16:00,
2013-07-06 17:21:00,67.7,62.4,29.46,WSW,248,2.5,5.1,83,0.00,,,0.00,WUHU216HW,2013-07-07 00:21:00,
2013-07-06 17:26:00,67.7,62.4,29.46,WNW,293,2.9,4.0,83,0.00,,,0.00,WUHU216HW,2013-07-07 00:26:00,
2013-07-06 17:31:00,67.5,62.2,29.45,NNW,338,1.6,2.9,83,0.00,,,0.00,WUHU216HW,2013-07-07 00:31:00,
2013-07-06 17:36:00,67.7,62.4,29.45,WSW,248,2.0,2.9,83,0.00,,,0.00,WUHU216HW,2013-07-07 00:36:00,
2013-07-06 17:42:00,68.2,62.9,29.45,West,270,1.8,3.8,83,0.00,,,0.00,WUHU216HW,2013-07-07 00:42:00,
2013-07-06 17:47:00,68.4,62.7,29.45,NW,315,2.0,3.8,82,0.00,,,0.00,WUHU216HW,2013-07-07 00:47:00,
2013-07-06 17:52:00,68.4,62.7,29.45,NNW,338,3.4,3.4,82,0.00,,,0.00,WUHU216HW,2013-07-07 00:52:00,
2013-07-06 17:57:00,68.6,62.9,29.45,WSW,248,1.6,3.4,82,0.00,,,0.00,WUHU216HW,2013-07-07 00:57:00,
2013-07-06 18:02:00,68.4,62.7,29.45,WNW,293,2.0,4.0,82,0.00,,,0.00,WUHU216HW,2013-07-07 01:02:00,
2013-07-06 18:08:00,68.4,62.7,29.45,WSW,248,1.3,4.0,82,0.00,,,0.00,WUHU216HW,2013-07-07 01:08:00,
2013-07-06 18:13:00,68.2,62.6,29.45,NNE,23,3.4,3.4,82,0.00,,,0.00,WUHU216HW,2013-07-07 01:13:00,
2013-07-06 18:18:00,68.0,62.4,29.45,West,270,1.3,7.6,82,0.00,,,0.00,WUHU216HW,2013-07-07 01:18:00,
2013-07-06 18:23:00,67.7,62.4,29.45,ESE,113,2.2,7.6,83,0.00,,,0.00,WUHU216HW,2013-07-07 01:23:00,
2013-07-06 18:28:00,67.7,62.4,29.45,NNW,338,2.5,4.0,83,0.00,,,0.00,WUHU216HW,2013-07-07 01:28:00,
2013-07-06 18:33:00,67.7,62.4,29.45,SW,225,2.9,2.9,83,0.00,,,0.00,WUHU216HW,2013-07-07 01:33:00,
2013-07-06 18:39:00,67.3,62.0,29.45,WSW,248,3.1,3.1,83,0.00,,,0.00,WUHU216HW,2013-07-07 01:39:00,
2013-07-06 18:44:00,67.0,61.9,29.46,West,270,0.4,4.0,84,0.00,,,0.00,WUHU216HW,2013-07-07 01:44:00,
2013-07-06 18:49:00,66.6,61.9,29.45,WSW,248,1.8,4.0,85,0.00,,,0.00,WUHU216HW,2013-07-07 01:49:00,
2013-07-06 18:55:00,66.2,61.6,29.46,West,270,3.1,3.1,85,0.00,,,0.00,WUHU216HW,2013-07-07 01:55:00,
2013-07-06 19:00:00,66.2,61.6,29.46,NW,315,2.0,3.1,85,0.00,,,0.00,WUHU216HW,2013-07-07 02:00:00,
2013-07-06 19:06:00,66.1,61.8,29.46,WSW,248,2.0,3.1,86,0.00,,,0.00,WUHU216HW,2013-07-07 02:06:00,
2013-07-06 19:11:00,65.7,61.4,29.46,NNW,338,1.1,2.0,86,0.00,,,0.00,WUHU216HW,2013-07-07 02:11:00,
2013-07-06 19:16:00,65.5,61.6,29.46,SSW,203,1.1,3.8,87,0.00,,,0.00,WUHU216HW,2013-07-07 02:16:00,
2013-07-06 19:22:00,65.3,61.4,29.46,SW,225,2.7,3.8,87,0.00,,,0.00,WUHU216HW,2013-07-07 02:22:00,
2013-07-06 19:27:00,65.2,60.8,29.46,WSW,248,1.8,3.1,86,0.00,,,0.00,WUHU216HW,2013-07-07 02:27:00,
2013-07-06 19:32:00,65.2,60.8,29.46,WNW,293,2.2,2.7,86,0.00,,,0.00,WUHU216HW,2013-07-07 02:32:00,
2013-07-06 19:37:00,64.8,60.6,29.47,WNW,293,2.9,2.9,86,0.00,,,0.00,WUHU216HW,2013-07-07 02:37:00,
2013-07-06 19:42:00,64.4,60.2,29.47,NNW,338,0.9,2.9,86,0.00,,,0.00,WUHU216HW,2013-07-07 02:42:00,
2013-07-06 19:47:00,64.3,60.4,29.47,West,270,0.4,2.9,87,0.00,,,0.00,WUHU216HW,2013-07-07 02:47:00,
2013-07-06 19:52:00,64.1,60.2,29.47,WNW,293,1.8,3.1,87,0.00,,,0.00,WUHU216HW,2013-07-07 02:52:00,
2013-07-06 19:57:00,63.7,59.9,29.47,West,270,2.0,3.1,87,0.00,,,0.00,WUHU216HW,2013-07-07 02:57:00,
2013-07-06 20:03:00,63.7,59.9,29.47,WSW,248,3.4,3.4,87,0.00,,,0.00,WUHU216HW,2013-07-07 03:03:00,
2013-07-06 20:08:00,63.5,59.7,29.47,WSW,248,1.8,3.4,87,0.00,,,0.00,WUHU216HW,2013-07-07 03:08:00,
2013-07-06 20:13:00,63.5,59.7,29.47,West,270,1.3,3.4,87,0.00,,,0.00,WUHU216HW,2013-07-07 03:13:00,
2013-07-06 20:19:00,63.4,59.5,29.47,WNW,293,0.4,2.5,87,0.00,,,0.00,WUHU216HW,2013-07-07 03:19:00,
2013-07-06 20:24:00,63.4,59.5,29.47,WNW,293,1.1,1.6,87,0.00,,,0.00,WUHU216HW,2013-07-07 03:24:00,
2013-07-06 20:29:00,63.4,59.5,29.47,NW,315,1.8,1.8,87,0.00,,,0.00,WUHU216HW,2013-07-07 03:29:00,
2013-07-06 20:34:00,63.4,59.5,29.48,ENE,68,0.7,1.8,87,0.00,,,0.00,WUHU216HW,2013-07-07 03:34:00,
2013-07-06 20:39:00,63.4,59.5,29.47,SW,225,2.2,2.2,87,0.00,,,0.00,WUHU216HW,2013-07-07 03:39:00,
2013-07-06 20:44:00,63.2,59.3,29.48,WSW,248,0.4,2.2,87,0.00,,,0.00,WUHU216HW,2013-07-07 03:44:00,
2013-07-06 20:49:00,63.2,59.3,29.48,SW,225,1.6,1.6,87,0.00,,,0.00,WUHU216HW,2013-07-07 03:49:00,
2013-07-06 20:54:00,63.2,59.3,29.48,SW,225,1.8,1.8,87,0.00,,,0.00,WUHU216HW,2013-07-07 03:54:00,
2013-07-06 21:00:00,63.2,59.3,29.48,West,270,0.4,1.8,87,0.00,,,0.00,WUHU216HW,2013-07-07 04:00:00,
2013-07-06 21:01:00,63.2,59.3,29.48,West,270,0.4,1.8,87,0.00,,,0.00,WUHU216HW,2013-07-07 04:01:00,
2013-07-06 21:06:00,63.2,59.3,29.48,SW,225,2.9,2.9,87,0.00,,,0.00,WUHU216HW,2013-07-07 04:06:00,
2013-07-06 21:11:00,63.2,59.3,29.49,West,270,0.2,2.9,87,0.00,,,0.00,WUHU216HW,2013-07-07 04:11:00,
2013-07-06 21:16:00,63.4,59.5,29.49,SW,225,0.4,2.9,87,0.00,,,0.00,WUHU216HW,2013-07-07 04:16:00,
2013-07-06 21:21:00,63.4,59.5,29.49,West,270,1.6,1.6,87,0.00,,,0.00,WUHU216HW,2013-07-07 04:21:00,
2013-07-06 21:26:00,63.4,59.5,29.50,WNW,293,0.2,1.6,87,0.00,,,0.00,WUHU216HW,2013-07-07 04:26:00,
2013-07-06 21:31:00,63.4,59.5,29.50,NW,315,0.4,1.6,87,0.00,,,0.00,WUHU216HW,2013-07-07 04:31:00,
2013-07-06 21:36:00,63.5,59.7,29.50,SW,225,1.3,1.3,87,0.00,,,0.00,WUHU216HW,2013-07-07 04:36:00,
2013-07-06 21:41:00,63.5,59.7,29.50,SW,225,0.7,1.3,87,0.00,,,0.00,WUHU216HW,2013-07-07 04:41:00,
2013-07-06 21:46:00,63.5,59.7,29.50,SW,225,0.0,1.3,87,0.00,,,0.00,WUHU216HW,2013-07-07 04:46:00,
2013-07-06 21:51:00,63.5,59.7,29.50,SSE,158,0.4,1.1,87,0.00,,,0.00,WUHU216HW,2013-07-07 04:51:00,
2013-07-06 21:56:00,63.5,59.7,29.50,ESE,113,0.4,1.1,87,0.00,,,0.00,WUHU216HW,2013-07-07 04:56:00,
2013-07-06 22:01:00,63.5,59.7,29.51,ENE,68,0.4,0.4,87,0.00,,,0.00,WUHU216HW,2013-07-07 05:01:00,
2013-07-06 22:06:00,63.5,59.7,29.51,NE,45,0.0,0.4,87,0.00,,,0.00,WUHU216HW,2013-07-07 05:06:00,
2013-07-06 22:11:00,63.5,59.7,29.50,NNW,338,0.0,0.7,87,0.00,,,0.00,WUHU216HW,2013-07-07 05:11:00,
2013-07-06 22:16:00,63.5,59.7,29.51,WSW,248,0.0,0.7,87,0.00,,,0.00,WUHU216HW,2013-07-07 05:16:00,
2013-07-06 22:21:00,63.5,59.7,29.51,SW,225,2.2,2.2,87,0.00,,,0.00,WUHU216HW,2013-07-07 05:21:00,
2013-07-06 22:26:00,63.4,59.5,29.51,SE,135,0.0,2.2,87,0.00,,,0.00,WUHU216HW,2013-07-07 05:26:00,
2013-07-06 22:31:00,63.4,59.5,29.51,SE,135,0.4,2.2,87,0.00,,,0.00,WUHU216HW,2013-07-07 05:31:00,
2013-07-06 22:36:00,63.5,59.7,29.51,East,90,2.5,2.5,87,0.00,,,0.00,WUHU216HW,2013-07-07 05:36:00,
2013-07-06 22:41:00,63.5,59.7,29.51,NE,45,2.5,2.5,87,0.00,,,0.00,WUHU216HW,2013-07-07 05:41:00,
2013-07-06 22:46:00,63.7,59.9,29.51,North,0,0.4,2.7,87,0.00,,,0.00,WUHU216HW,2013-07-07 05:46:00,
2013-07-06 22:50:00,63.7,59.9,29.51,North,0,0.2,2.7,87,0.00,,,0.00,WUHU216HW,2013-07-07 05:50:00,
2013-07-06 22:51:00,63.7,59.9,29.51,North,0,0.2,2.7,87,0.00,,,0.00,WUHU216HW,2013-07-07 05:51:00,
2013-07-06 22:52:00,63.7,59.9,29.51,North,0,0.2,2.7,87,0.00,,,0.00,WUHU216HW,2013-07-07 05:52:00,
2013-07-06 22:53:00,63.7,59.9,29.51,North,0,0.2,2.7,87,0.00,,,0.00,WUHU216HW,2013-07-07 05:53:00,
2013-07-06 22:54:00,63.7,59.9,29.51,North,0,0.4,2.7,87,0.00,,,0.00,WUHU216HW,2013-07-07 05:54:00,
2013-07-06 22:55:00,63.7,59.9,29.51,North,0,0.4,2.7,87,0.00,,,0.00,WUHU216HW,2013-07-07 05:55:00,
2013-07-06 22:56:00,63.7,59.9,29.51,North,0,0.4,0.4,87,0.00,,,0.00,WUHU216HW,2013-07-07 05:56:00,
2013-07-06 22:57:00,63.7,59.9,29.51,North,0,0.4,0.4,87,0.00,,,0.00,WUHU216HW,2013-07-07 05:57:00,
2013-07-06 22:58:00,63.7,59.9,29.51,ENE,68,1.1,1.1,87,0.00,,,0.00,WUHU216HW,2013-07-07 05:58:00,
2013-07-06 22:59:00,63.7,59.9,29.51,East,90,1.8,1.8,87,0.00,,,0.00,WUHU216HW,2013-07-07 05:59:00,
2013-07-06 23:00:00,63.7,59.9,29.51,East,90,1.8,1.8,87,0.00,,,0.00,WUHU216HW,2013-07-07 06:00:00,
2013-07-06 23:01:00,63.7,59.9,29.51,East,90,1.8,1.8,87,0.00,,,0.00,WUHU216HW,2013-07-07 06:01:00,
2013-07-06 23:02:00,63.7,59.9,29.51,East,90,1.8,1.8,87,0.00,,,0.00,WUHU216HW,2013-07-07 06:02:00,
2013-07-06 23:03:00,63.7,59.9,29.51,SSE,158,0.9,1.8,87,0.00,,,0.00,WUHU216HW,2013-07-07 06:03:00,
2013-07-06 23:04:00,63.7,59.9,29.51,SSE,158,0.9,1.8,87,0.00,,,0.00,WUHU216HW,2013-07-07 06:04:00,
2013-07-06 23:05:00,63.7,59.9,29.51,SSW,203,0.4,1.8,87,0.00,,,0.00,WUHU216HW,2013-07-07 06:05:00,
2013-07-06 23:06:00,63.7,59.9,29.51,SSW,203,0.4,1.8,87,0.00,,,0.00,WUHU216HW,2013-07-07 06:06:00,
2013-07-06 23:07:00,63.7,59.9,29.51,NE,45,0.0,1.8,87,0.00,,,0.00,WUHU216HW,2013-07-07 06:07:00,
2013-07-06 23:08:00,63.7,59.9,29.52,NE,45,0.0,1.8,87,0.00,,,0.00,WUHU216HW,2013-07-07 06:08:00,
2013-07-06 23:09:00,63.7,59.9,29.52,NE,45,0.0,1.8,87,0.00,,,0.00,WUHU216HW,2013-07-07 06:09:00,
2013-07-06 23:10:00,63.7,59.9,29.51,NE,45,0.0,1.8,87,0.00,,,0.00,WUHU216HW,2013-07-07 06:10:00,
2013-07-06 23:11:00,63.7,59.9,29.51,NE,45,0.0,1.8,87,0.00,,,0.00,WUHU216HW,2013-07-07 06:11:00,
2013-07-06 23:12:00,63.7,59.9,29.51,South,180,1.1,1.8,87,0.00,,,0.00,WUHU216HW,2013-07-07 06:12:00,
2013-07-06 23:13:00,63.7,59.9,29.51,South,180,1.6,1.6,87,0.00,,,0.00,WUHU216HW,2013-07-07 06:13:00,
2013-07-06 23:14:00,63.7,59.9,29.52,South,180,1.6,1.6,87,0.00,,,0.00,WUHU216HW,2013-07-07 06:14:00,
2013-07-06 23:15:00,63.7,59.9,29.51,South,180,1.6,1.6,87,0.00,,,0.00,WUHU216HW,2013-07-07 06:15:00,
2013-07-06 23:16:00,63.7,59.9,29.52,South,180,1.6,1.6,87,0.00,,,0.00,WUHU216HW,2013-07-07 06:16:00,
2013-07-06 23:17:00,63.7,59.9,29.52,SSW,203,1.3,1.6,87,0.00,,,0.00,WUHU216HW,2013-07-07 06:17:00,
2013-07-06 23:18:00,63.7,59.9,29.52,SSW,203,1.3,1.6,87,0.00,,,0.00,WUHU216HW,2013-07-07 06:18:00,
2013-07-06 23:19:00,63.7,59.9,29.52,SSW,203,1.3,1.6,87,0.00,,,0.00,WUHU216HW,2013-07-07 06:19:00,
2013-07-06 23:20:00,63.7,59.9,29.52,SSW,203,1.3,1.6,87,0.00,,,0.00,WUHU216HW,2013-07-07 06:20:00,
2013-07-06 23:21:00,63.7,59.9,29.51,SW,225,1.6,1.6,87,0.00,,,0.00,WUHU216HW,2013-07-07 06:21:00,
2013-07-06 23:22:00,63.7,59.9,29.52,SW,225,1.6,1.6,87,0.00,,,0.00,WUHU216HW,2013-07-07 06:22:00,
2013-07-06 23:23:00,63.7,59.9,29.51,SW,225,1.6,1.6,87,0.00,,,0.00,WUHU216HW,2013-07-07 06:23:00,
2013-07-06 23:24:00,63.7,59.9,29.51,SW,225,1.6,1.6,87,0.00,,,0.00,WUHU216HW,2013-07-07 06:24:00,
2013-07-06 23:25:00,63.7,59.9,29.52,SW,225,1.1,1.6,87,0.00,,,0.00,WUHU216HW,2013-07-07 06:25:00,
2013-07-06 23:26:00,63.7,59.9,29.52,SW,225,1.1,1.6,87,0.00,,,0.00,WUHU216HW,2013-07-07 06:26:00,
2013-07-06 23:27:00,63.7,59.9,29.51,SW,225,1.1,1.6,87,0.00,,,0.00,WUHU216HW,2013-07-07 06:27:00,
2013-07-06 23:28:00,63.7,59.9,29.51,SW,225,1.1,1.6,87,0.00,,,0.00,WUHU216HW,2013-07-07 06:28:00,
2013-07-06 23:29:00,63.5,59.7,29.51,SW,225,1.3,1.6,87,0.00,,,0.00,WUHU216HW,2013-07-07 06:29:00,
2013-07-06 23:30:00,63.5,59.7,29.51,SW,225,1.3,1.6,87,0.00,,,0.00,WUHU216HW,2013-07-07 06:30:00,
2013-07-06 23:31:00,63.5,59.7,29.51,SW,225,1.3,1.6,87,0.00,,,0.00,WUHU216HW,2013-07-07 06:31:00,
2013-07-06 23:32:00,63.5,59.7,29.52,SW,225,1.3,1.6,87,0.00,,,0.00,WUHU216HW,2013-07-07 06:32:00,
2013-07-06 23:33:00,63.5,59.7,29.52,SW,225,1.8,1.8,87,0.00,,,0.00,WUHU216HW,2013-07-07 06:33:00,
2013-07-06 23:34:00,63.5,59.7,29.51,SW,225,1.8,1.8,87,0.00,,,0.00,WUHU216HW,2013-07-07 06:34:00,
2013-07-06 23:35:00,63.5,59.7,29.52,SW,225,1.8,1.8,87,0.00,,,0.00,WUHU216HW,2013-07-07 06:35:00,
2013-07-06 23:36:00,63.5,59.7,29.52,SW,225,1.8,1.8,87,0.00,,,0.00,WUHU216HW,2013-07-07 06:36:00,
2013-07-06 23:37:00,63.5,59.7,29.52,WSW,248,1.3,1.8,87,0.00,,,0.00,WUHU216HW,2013-07-07 06:37:00,
2013-07-06 23:38:00,63.5,59.7,29.52,WSW,248,1.3,1.8,87,0.00,,,0.00,WUHU216HW,2013-07-07 06:38:00,
2013-07-06 23:39:00,63.5,59.7,29.52,WSW,248,1.3,1.8,87,0.00,,,0.00,WUHU216HW,2013-07-07 06:39:00,
2013-07-06 23:40:00,63.5,59.7,29.52,WSW,248,1.3,1.8,87,0.00,,,0.00,WUHU216HW,2013-07-07 06:40:00,
2013-07-06 23:41:00,63.5,59.7,29.52,SW,225,1.1,1.8,87,0.00,,,0.00,WUHU216HW,2013-07-07 06:41:00,
2013-07-06 23:42:00,63.5,59.7,29.52,SW,225,0.7,1.8,87,0.00,,,0.00,WUHU216HW,2013-07-07 06:42:00,
2013-07-06 23:43:00,63.5,59.7,29.52,SW,225,0.7,1.8,87,0.00,,,0.00,WUHU216HW,2013-07-07 06:43:00,
2013-07-06 23:44:00,63.5,59.7,29.52,SW,225,0.7,1.8,87,0.00,,,0.00,WUHU216HW,2013-07-07 06:44:00,
2013-07-06 23:45:00,63.5,59.7,29.52,SW,225,0.7,1.8,87,0.00,,,0.00,WUHU216HW,2013-07-07 06:45:00,
2013-07-06 23:46:00,63.5,59.7,29.52,South,180,1.1,1.8,87,0.00,,,0.00,WUHU216HW,2013-07-07 06:46:00,
2013-07-06 23:47:00,63.5,59.7,29.52,South,180,1.1,1.3,87,0.00,,,0.00,WUHU216HW,2013-07-07 06:47:00,
2013-07-06 23:48:00,63.5,59.7,29.52,South,180,1.1,1.3,87,0.00,,,0.00,WUHU216HW,2013-07-07 06:48:00,
2013-07-06 23:49:00,63.5,59.7,29.52,South,180,1.1,1.3,87,0.00,,,0.00,WUHU216HW,2013-07-07 06:49:00,
2013-07-06 23:50:00,63.5,59.7,29.52,SW,225,1.1,1.3,87,0.00,,,0.00,WUHU216HW,2013-07-07 06:50:00,
2013-07-06 23:51:00,63.5,59.7,29.52,SW,225,1.1,1.1,87,0.00,,,0.00,WUHU216HW,2013-07-07 06:51:00,
2013-07-06 23:52:00,63.5,59.7,29.52,SW,225,1.1,1.1,87,0.00,,,0.00,WUHU216HW,2013-07-07 06:52:00,
2013-07-06 23:53:00,63.5,59.7,29.52,SW,225,0.7,1.1,87,0.00,,,0.00,WUHU216HW,2013-07-07 06:53:00,
2013-07-06 23:54:00,63.5,59.7,29.51,SSW,203,1.1,1.1,87,0.00,,,0.00,WUHU216HW,2013-07-07 06:54:00,
2013-07-06 23:55:00,63.5,59.7,29.51,SSW,203,1.1,1.1,87,0.00,,,0.00,WUHU216HW,2013-07-07 06:55:00,
2013-07-06 23:56:00,63.5,59.7,29.51,SSW,203,1.1,1.1,87,0.00,,,0.00,WUHU216HW,2013-07-07 06:56:00,
2013-07-06 23:57:00,63.5,59.7,29.52,SSW,203,1.1,1.1,87,0.00,,,0.00,WUHU216HW,2013-07-07 06:57:00,
2013-07-06 23:58:00,63.5,59.7,29.52,SW,225,0.2,1.1,87,0.00,,,0.00,WUHU216HW,2013-07-07 06:58:00,
2013-07-06 23:59:00,63.5,59.7,29.51,SW,225,0.2,1.1,87,0.00,,,0.00,WUHU216HW,2013-07-07 06:59:00,